Regional Weather Roundup
Issued by NWS Charleston, WV

Home | Current Version | Previous Version | Text Only | Print | Product List | Glossary Off
Versions: 1 2 3 4 5 6 7 8 9 10 11 12 13 14 15 16 17 18 19 20 21 22 23 24 25 26 27 28

000
ASUS41 KRLX 252310
RWRRLX
West Virginia Regional Weather Roundup
National Weather Service Charleston WV
700 PM EDT MON JUL 25 2016

Note: "fair" indicates few or no clouds below 12,000 feet with no
significant weather and/or obstructions to visibility.

WVZ003-260000-
Northern Panhandle of West Virginia

CITY           SKY/WX    TMP DP  RH WIND       PRES   REMARKS
WHEELING       PTSUNNY   91  68  46 W10       29.94R
$$

WVZ009-260000-
Northwest West Virginia

CITY           SKY/WX    TMP DP  RH WIND       PRES   REMARKS
PARKERSBURG      N/A     87  73  62 W5        29.96S
$$

WVZ006-260000-
Western West Virginia

CITY           SKY/WX    TMP DP  RH WIND       PRES   REMARKS
HUNTINGTON       N/A     83  74  74 W7        29.98R
$$

WVZ015-260000-
West Central West Virginia

CITY           SKY/WX    TMP DP  RH WIND       PRES   REMARKS
CHARLESTON     PTSUNNY   89  74  60 W5        29.97S HX  98
$$

WVZ022-031-260000-
North Central West Virginia

CITY           SKY/WX    TMP DP  RH WIND       PRES   REMARKS
CLARKSBURG       N/A     80  70  71 S7        29.98R
MORGANTOWN     TSTM      72  69  90 S8        30.01S FOG
$$

WVZ025-035-042-045-260000-
Southern West Virginia

CITY           SKY/WX    TMP DP  RH WIND       PRES   REMARKS
BECKLEY          N/A     83  69  62 W7        30.08R
LOGAN            N/A     79  72  78 SW5G12    30.02S
BLUEFIELD        N/A     82  69  64 W5        30.12R
LEWISBURG        N/A     83  71  67 CALM      30.06R
$$

WVZ047-260000-
Northern Mountains of West Virginia

CITY           SKY/WX    TMP DP  RH WIND       PRES   REMARKS
ELKINS           N/A     77  68  73 VRB3      30.05R
$$

WVZ052-260000-
Eastern Panhandle of West Virginia

CITY           SKY/WX    TMP DP  RH WIND       PRES   REMARKS
MARTINSBURG      N/A     87  68  52 S8        29.88R
PETERSBURG       N/A     87  70  57 W10       29.95R
$$




USA.gov is the U.S. government's official web portal to all federal, state and local government web resources and services.